User: anonymous   Login
Location: Phoenix
(33.4480°N, 112.0730°W)
Time: 15:45:34
(UTC-07:00)
Language:

Hubble Space Telescope - Orbit

View from above orbital plane
View from above orbital plane
View from above satellite
View from above satellite

Ground track
Ground track

The orbit data is extracted from the following two-line orbital elements,

1 20580U 90037B   17057.93885604 +.00000747 +00000-0 +35304-4 0  9994
2 20580 028.4708 015.9762 0002941 070.5944 345.6335 15.08683067273534
Epoch (UTC): 26 February 2017 22:31:57
Eccentricity: 0.0002941
inclination: 28.4708°
perigee height: 538 km
apogee height: 542 km
right ascension of ascending node: 15.9762°
argument of perigee: 70.5944°
revolutions per day: 15.08683067
mean anomaly at epoch: 345.6335°
orbit number at epoch: 27353

The dashed part of the orbit path shows where the satellite is in the earth's shadow,  

DLR